Date,TemperatureHighF,TemperatureAvgF,TemperatureLowF,DewpointHighF,DewpointAvgF,DewpointLowF,HumidityHigh,HumidityAvg,HumidityLow,PressureMaxIn,PressureMinIn,WindSpeedMaxMPH,WindSpeedAvgMPH,GustSpeedMaxMPH,PrecipitationSumIn
2013-4-1,46.9,42.1,33.3,43.5,30.9,14.2,90,67,31,30.06,29.76,12,2,14,0.02
2013-4-2,42.4,33.0,24.6,20.3,14.9,10.4,67,49,29,30.25,30.05,15,1,17,0.00
2013-4-3,45.0,31.5,19.8,21.7,15.3,8.2,86,55,25,30.45,30.25,17,1,19,0.00
2013-4-4,57.0,37.5,17.1,22.1,16.0,8.8,84,48,15,30.44,30.03,10,1,13,0.00
2013-4-5,60.1,44.6,27.3,34.2,26.1,20.7,86,51,30,30.19,29.96,15,1,19,0.00
2013-4-6,64.8,44.1,22.5,26.4,17.0,3.6,88,43,10,30.32,30.05,14,1,19,0.00
2013-4-7,73.4,62.7,54.1,52.9,38.1,22.1,92,43,26,30.05,29.90,19,4,21,0.07
2013-4-8,76.6,62.5,46.8,53.6,47.0,42.4,94,62,33,30.05,29.91,15,1,15,0.00
2013-4-9,81.7,66.8,49.3,56.1,51.4,45.1,90,60,38,30.10,29.93,15,1,16,0.00
2013-4-10,85.5,73.6,59.4,59.2,54.8,50.4,80,54,36,29.97,29.78,15,2,17,0.00
2013-4-11,82.6,68.5,52.5,59.2,55.0,49.8,93,65,39,29.86,29.55,11,1,12,0.00
2013-4-12,74.8,62.0,47.1,59.5,49.5,36.1,91,65,37,29.85,29.49,18,2,20,0.35
2013-4-13,61.2,49.2,39.0,37.0,33.0,29.1,79,56,32,30.02,29.84,13,2,17,0.00
2013-4-14,65.8,49.5,29.5,39.9,33.0,25.7,89,57,30,30.20,30.00,13,1,14,0.00
2013-4-15,66.9,61.8,57.0,49.6,44.8,37.6,70,54,39,30.11,29.99,20,3,22,0.00
2013-4-16,82.4,69.0,57.9,61.2,54.1,48.0,94,61,42,30.22,30.02,14,3,17,0.67
2013-4-17,70.3,60.7,54.5,60.4,57.0,53.2,97,88,70,30.23,30.06,11,0,16,0.01
2013-4-18,85.3,73.1,63.5,67.5,57.3,52.9,83,60,38,30.09,29.78,19,4,20,0.02
2013-4-19,74.8,62.3,45.9,61.2,50.0,33.3,86,65,52,29.87,29.47,19,3,23,0.13
2013-4-20,51.6,42.7,31.5,34.5,27.6,22.8,77,56,34,30.42,29.87,15,2,19,0.01
2013-4-21,57.7,41.4,24.6,29.5,23.8,19.2,91,55,26,30.62,30.42,11,1,13,0.00
2013-4-22,63.0,51.3,42.1,31.6,25.5,17.1,54,38,18,30.48,30.27,19,5,20,0.00
2013-4-23,71.8,56.8,38.3,42.1,34.2,28.4,78,46,21,30.28,29.97,18,2,20,0.00
2013-4-24,75.9,61.1,40.6,58.8,46.2,33.3,87,60,44,30.18,29.73,19,3,22,0.19
2013-4-25,59.5,46.1,32.9,36.7,31.9,27.9,93,61,33,30.38,30.17,12,1,13,0.00
2013-4-26,61.7,48.2,34.5,38.1,33.1,28.0,90,60,29,30.49,30.38,8,1,10,0.00
2013-4-27,75.9,55.8,31.5,42.4,34.1,27.0,95,53,19,30.42,30.17,10,1,13,0.00
2013-4-28,63.5,58.1,51.1,52.0,47.0,40.5,89,67,46,30.19,29.94,17,2,18,0.14
2013-4-29,67.5,59.8,55.9,57.0,51.9,46.9,90,76,62,30.02,29.94,12,1,17,0.06
2013-4-30,74.7,62.6,55.6,55.4,51.9,49.1,86,69,47,30.17,30.01,16,3,21,0.00